sat.trackr.live / text

‹ back to catalog

STARLINK-30121

NORAD 56695 · 2023-067H

PAYLOAD ACTIVE UNKNOWN

§ Identity

Operator
Country
US
Launch date
2023-05-19
Launch site
AFETR
Launch vehicle
Mass (kg)
RCS (m²)

Purposes: comms

External: N2YO · Heavens-Above · Gunter

§ Orbital elements

Epoch: 2026-09-20T01:08:51.520128Z

Period
94.27 min
Inclination
43.0020°
Eccentricity
0.0000938
Mean motion
15.27577476 rev/d
Perigee alt
482.4 km
Apogee alt
483.7 km
Semi-major
6,861.2 km
B*
3.2599e-5
RAAN
263.7106°
Arg perigee
278.2853°
Mean anomaly
81.7892°
Rev number
18,530

§ Raw data

STARLINK-301211 56695U 23067H   26263.04781852  .00000635  00000+0  32599-4 0  99982 56695  43.0020 263.7106 0000938 278.2853  81.7892 15.27577476185305

JSON: /api/v1/satellites/56695 · /tle

For live sub-satellite position, see the globe view (requires WebGL).

§ Visibility from observer

Set your observer location to see the next 7 days of passes ≥ 10°. The values pass through the URL so the page stays shareable.

No JS? Fill the form by hand. The geolocation button needs JavaScript.